Cross City, FL

3:04 AM EDT on October 15, 2019 (GMT -0400)
Cross City

Weather History for KCTY - July, 2019

Change the Weather History Date:

Tuesday, July 23, 2019

  Actual Average Record
Temperature  
Mean Temperature 81 °F 82 °F  
Max Temperature 91 °F 91 °F 96 °F (2010)
Min Temperature 71 °F 72 °F 69 °F (2002)
Degree Days  
Heating Degree Days 0 0  
Month to date heating degree days 0 0  
Since 1 June heating degree days 0 0  
Since 1 July heating degree days 0 0  
Cooling Degree Days 16 17  
Month to date cooling degree days 409 375  
Year to date cooling degree days 1585 1301  
Since 1 June cooling degree days 901 822  
Growing Degree Days 31 (Base 50)    
Moisture  
Dew Point 73 °F    
Average Humidity 81    
Maximum Humidity 100    
Minimum Humidity 51    
Precipitation  
Precipitation 0.05 in 0.20 in 1.50 in (2017)
Month to date precipitation 3.17 4.03  
Year to date precipitation 31.82 26.29  
Sea Level Pressure  
Sea Level Pressure 29.94 in    
Wind  
Wind Speed 5 mph (WSW)    
Max Wind Speed 13 mph    
Max Gust Speed 22 mph    
Visibility 10 miles    
Events Rain , Thunderstorm    
T = Trace of Precipitation, MM = Missing Value Source: NWS Daily Summary

Daily Weather History Graph

Daily Weather History Graph

Search for Another Location

Airport or City:

Astronomy

Jul. 23, 2019 Rise Set
Actual Time 6:46 AM EDT 8:30 PM EDT
Civil Twilight 6:20 AM EDT 8:57 PM EDT
Nautical Twilight 5:48 AM EDT 9:28 PM EDT
Astronomical Twilight 5:15 AM EDT 10:02 PM EDT
Moon 12:14 AM EDT (7/23) 12:33 PM EDT (7/23)
Length of Visible Light 14h 36m
Length of Day
13h 44m
Waning Gibbous, 63% of the Moon is Illuminated
Jul 23
Waning Gibbous
Jul 24
Last Quarter
Jul 31
New
Aug 7
First Quarter
Aug 15
Full

Hourly Weather History & Observations

Time (EDT) Temp. Heat Index Dew Point Humidity Pressure Visibility Wind Dir Wind Speed Gust Speed Precip Events Conditions
12:15 AM 75.4 °F - 74.1 °F 96% 30.01 in 10.0 mi Calm Calm - N/A   Scattered Clouds
12:35 AM 75.0 °F - 73.9 °F 96% 29.99 in 10.0 mi North 3.5 mph - N/A   Clear
12:55 AM 74.5 °F - 73.8 °F 98% 29.99 in 10.0 mi Calm Calm - N/A   Clear
1:15 AM 74.3 °F - 73.6 °F 98% 29.98 in 10.0 mi Calm Calm - N/A   Clear
1:35 AM 74.1 °F - 73.2 °F 97% 29.98 in 10.0 mi Calm Calm - N/A   Clear
1:55 AM 74.5 °F - 73.9 °F 98% 29.98 in 10.0 mi East 3.5 mph - N/A   Clear
2:15 AM 74.3 °F - 73.8 °F 98% 29.98 in 10.0 mi Calm Calm - N/A   Clear
2:35 AM 73.9 °F - 73.2 °F 98% 29.97 in 10.0 mi Calm Calm - N/A   Clear
2:55 AM 74.8 °F - 74.3 °F 98% 29.96 in 7.0 mi ESE 4.6 mph - N/A   Clear
3:15 AM 74.7 °F - 74.1 °F 98% 29.95 in 7.0 mi Calm Calm - N/A   Clear
3:35 AM 72.9 °F - 72.1 °F 98% 29.95 in 7.0 mi Calm Calm - N/A   Clear
3:55 AM 73.6 °F - 73.0 °F 98% 29.95 in 10.0 mi Calm Calm - N/A   Scattered Clouds
4:15 AM 72.9 °F - 72.3 °F 98% 29.94 in 7.0 mi Calm Calm - N/A   Clear
4:35 AM 72.7 °F - 72.1 °F 98% 29.94 in 5.0 mi Calm Calm - N/A   Scattered Clouds
4:55 AM 72.0 °F - 71.4 °F 98% 29.94 in 10.0 mi Calm Calm - N/A   Scattered Clouds
5:15 AM 72.5 °F - 72.0 °F 98% 29.94 in 5.0 mi Calm Calm - N/A   Scattered Clouds
5:35 AM 72.7 °F - 72.1 °F 98% 29.94 in 7.0 mi Calm Calm - N/A   Clear
5:55 AM 72.3 °F - 72.0 °F 99% 29.94 in 10.0 mi Calm Calm - N/A   Clear
6:15 AM 71.6 °F - 71.1 °F 98% 29.95 in 10.0 mi Calm Calm - N/A   Clear
6:35 AM 71.4 °F - 70.9 °F 98% 29.95 in 10.0 mi Calm Calm - N/A   Clear
6:55 AM 71.8 °F - 71.2 °F 98% 29.96 in 7.0 mi Calm Calm - N/A   Clear
7:15 AM 72.0 °F - 71.4 °F 98% 29.96 in 10.0 mi Calm Calm - N/A   Clear
7:35 AM 74.1 °F - 73.6 °F 98% 29.97 in 10.0 mi Calm Calm - N/A   Scattered Clouds
7:55 AM 75.2 °F - 75.2 °F 100% 29.97 in 10.0 mi Calm Calm - N/A   Clear
8:15 AM 77.0 °F - 75.0 °F 94% 29.97 in 10.0 mi Calm Calm - N/A   Clear
8:35 AM 78.4 °F - 75.6 °F 91% 29.97 in 10.0 mi SSE 3.5 mph - N/A   Clear
8:55 AM 79.7 °F - 75.7 °F 88% 29.97 in 10.0 mi ESE 3.5 mph - N/A   Clear
9:15 AM 80.4 °F 86.0 °F 75.6 °F 85% 29.98 in 10.0 mi Calm Calm - N/A   Clear
9:35 AM 82.4 °F 89.8 °F 75.7 °F 80% 29.97 in 10.0 mi Calm Calm - N/A   Clear
9:55 AM 82.8 °F 90.1 °F 75.4 °F 78% 29.97 in 10.0 mi SW 4.6 mph - N/A   Scattered Clouds
10:15 AM 84.6 °F 93.2 °F 75.6 °F 74% 29.97 in 10.0 mi WSW 5.8 mph - N/A   Scattered Clouds
10:35 AM 84.9 °F 93.3 °F 74.8 °F 72% 29.96 in 10.0 mi Calm Calm - N/A   Scattered Clouds
10:55 AM 86.4 °F 93.8 °F 73.4 °F 65% 29.96 in 10.0 mi SW 4.6 mph - N/A   Scattered Clouds
11:15 AM 85.5 °F 93.0 °F 73.9 °F 68% 29.96 in 10.0 mi WNW 11.5 mph - N/A   Mostly Cloudy
11:35 AM 84.7 °F 92.8 °F 74.8 °F 72% 29.96 in - NNW 5.8 mph - N/A   Scattered Clouds
11:55 AM 86.7 °F 95.9 °F 75.0 °F 68% 29.96 in 10.0 mi NW 6.9 mph - N/A   Mostly Cloudy
12:15 PM 87.4 °F 97.7 °F 75.6 °F 68% 29.95 in 10.0 mi North 5.8 mph - N/A   Mostly Cloudy
12:35 PM 86.2 °F 93.8 °F 73.6 °F 66% 29.95 in 10.0 mi West 9.2 mph - N/A   Mostly Cloudy
12:55 PM 87.1 °F 93.6 °F 72.3 °F 61% 29.94 in 10.0 mi WSW 12.7 mph - N/A   Mostly Cloudy
1:15 PM 88.3 °F 96.4 °F 73.4 °F 61% 29.94 in 10.0 mi West 6.9 mph - N/A   Scattered Clouds
1:35 PM 89.6 °F 97.2 °F 72.5 °F 57% 29.94 in 10.0 mi WSW 10.4 mph - N/A   Scattered Clouds
1:55 PM 89.4 °F 97.3 °F 73.0 °F 58% 29.93 in 10.0 mi West 12.7 mph - N/A   Scattered Clouds
2:15 PM 90.5 °F 98.6 °F 73.0 °F 56% 29.93 in 10.0 mi WSW 15.0 mph - N/A   Scattered Clouds
2:35 PM 89.6 °F 96.2 °F 71.6 °F 55% 29.92 in 10.0 mi WSW 11.5 mph - N/A   Scattered Clouds
2:55 PM 89.6 °F 98.2 °F 73.4 °F 59% 29.91 in 10.0 mi West 10.4 mph - N/A Thunderstorm Thunderstorm
3:15 PM 88.9 °F 95.6 °F 72.0 °F 57% 29.90 in 10.0 mi West 10.4 mph - N/A   Mostly Cloudy
3:35 PM 90.0 °F 96.9 °F 71.6 °F 55% 29.89 in 10.0 mi WSW 11.5 mph - N/A   Scattered Clouds
3:55 PM 90.0 °F 96.4 °F 71.4 °F 54% 29.89 in 10.0 mi WSW 12.7 mph - N/A   Clear
4:15 PM 87.6 °F 95.7 °F 73.4 °F 63% 29.89 in 10.0 mi WSW 10.4 mph - N/A   Scattered Clouds
4:55 PM 87.8 °F 95.6 °F 73.4 °F 62% 29.89 in 10.0 mi WSW 12.7 mph 18.4 mph N/A   Scattered Clouds
5:15 PM 86.7 °F 93.3 °F 72.5 °F 62% 29.89 in 10.0 mi West 10.4 mph - N/A   Scattered Clouds
5:35 PM 87.6 °F 94.8 °F 72.5 °F 61% 29.89 in 10.0 mi WSW 13.8 mph 20.7 mph N/A   Scattered Clouds
5:55 PM 87.3 °F 94.0 °F 72.3 °F 61% 29.89 in 10.0 mi WSW 10.4 mph 21.9 mph N/A   Scattered Clouds
6:15 PM 87.1 °F 94.1 °F 72.5 °F 62% 29.88 in 10.0 mi SW 13.8 mph - N/A   Scattered Clouds
6:35 PM 86.7 °F 94.1 °F 73.0 °F 64% 29.88 in 10.0 mi SW 11.5 mph 16.1 mph N/A   Scattered Clouds
6:55 PM 84.7 °F 91.7 °F 73.4 °F 69% 29.89 in 10.0 mi WSW 9.2 mph - N/A   Scattered Clouds
7:15 PM 85.3 °F 91.8 °F 72.9 °F 66% 29.90 in 10.0 mi WSW 12.7 mph - N/A   Scattered Clouds
7:35 PM 83.7 °F 90.1 °F 73.4 °F 71% 29.90 in 10.0 mi WSW 8.1 mph - N/A   Scattered Clouds
7:55 PM 82.8 °F 89.0 °F 73.8 °F 74% 29.90 in 10.0 mi SW 8.1 mph - N/A   Clear
8:15 PM 82.0 °F 88.1 °F 74.1 °F 77% 29.90 in 10.0 mi SW 5.8 mph - N/A   Clear
8:35 PM 81.1 °F 86.8 °F 74.5 °F 80% 29.90 in 10.0 mi SSW 5.8 mph - N/A   Clear
8:55 PM 80.2 °F 85.0 °F 74.1 °F 82% 29.92 in 10.0 mi WSW 4.6 mph - N/A   Scattered Clouds
9:15 PM 79.7 °F - 73.0 °F 80% 29.92 in 10.0 mi SSW 4.6 mph - N/A Rain Light Rain
9:35 PM 77.5 °F - 73.8 °F 88% 29.92 in 10.0 mi SSE 3.5 mph - N/A Rain Light Rain
9:55 PM 76.1 °F - 73.0 °F 90% 29.92 in 10.0 mi South 4.6 mph - N/A   Scattered Clouds
10:15 PM 76.1 °F - 73.0 °F 90% 29.92 in 10.0 mi South 5.8 mph - N/A   Clear
10:35 PM 75.6 °F - 72.9 °F 91% 29.92 in 10.0 mi Calm Calm - N/A Thunderstorm Clear
10:55 PM 75.9 °F - 73.6 °F 92% 29.93 in 10.0 mi Calm Calm - N/A Thunderstorm Mostly Cloudy
11:15 PM 76.3 °F - 73.8 °F 92% 29.93 in 10.0 mi Calm Calm - N/A Thunderstorm Thunderstorm
11:35 PM 76.3 °F - 74.3 °F 94% 29.94 in 7.0 mi WSW 5.8 mph - 0.01 in Rain , Thunderstorm Light Thunderstorms and Rain
11:55 PM 75.4 °F - 73.4 °F 94% 29.95 in 10.0 mi SSW 4.6 mph - 0.02 in Rain , Thunderstorm Light Thunderstorms and Rain